Location: Mountain Grove
(34.0887°N, 86.6172°W)
Time: 00:27:26
(UTC+00:00)

CZ-4C R/B - Pass Details

Date: 14 July 2020
Orbit: 409 x 491 km, 97.7° (Epoch: 12 August)

Event Time Altitude Azimuth Distance (km) Brightness Sun altitude
Exits shadow 10:09:24 - 214° (SW) 1,688 5.2 -7.4°
Reaches altitude 10° 10:09:57 10° 221° (SW) 1,517 5.0 -7.3°
Maximum altitude 10:12:09 17° 264° (W) 1,154 4.4 -6.9°
Drops below altitude 10° 10:14:20 10° 307° (NW) 1,502 5.3 -6.5°
Sets 10:16:49 0° 328° (NNW) 2,360 6.6 -6.1°
